Location: Montbazon
(47.2835°N, 0.6999°E)
Time: 17:01:41
(UTC+00:00)

NOSS 2-1 (E) - Pass Details

Date: 08 November 2025
Orbit: 385 x 1749 km, 63.3° (Epoch: 07 May)

Event Time Altitude Azimuth Distance (km) Brightness Sun altitude
Exits shadow 05:18:52 35° 265° (W) 734 3.4 -15.8°
Maximum altitude 05:19:50 48° 313° (NW) 576 3.0 -15.7°
Drops below altitude 10° 05:22:50 10° 30° (NNE) 1,448 5.7 -15.2°
Sets 05:24:48 0° 36° (NE) 2,281 6.9 -14.8°
